View from above orbital plane
|
View from above satellite
|
Ground track
|
The orbit data is extracted from the following two-line orbital elements,
1 40074U 14037F 21015.84495819 .00000266 00000-0 38835-4 0 9992
2 40074 98.4427 222.7665 0004657 145.1304 215.0205 14.84432275353265
Epoch (UTC): | 15 January 2021 20:16:44 |
Eccentricity: | 0.0004657 |
inclination: | 98.4427° |
perigee height: | 612 km |
apogee height: | 618 km |
right ascension of ascending node: | 222.7665° |
argument of perigee: | 145.1304° |
revolutions per day: | 14.84432275 |
mean anomaly at epoch: | 215.0205° |
orbit number at epoch: | 35326 |
The dashed part of the orbit path shows where the satellite is in the earth's shadow,
|
|